Lid_Strength_Index
9 10 10 10 10 10 10 10 9 9 9 9 9 9 9 9 9 9 9 9 9 8 8 7 7 5 5 5 5 5 5 5 7 6 4 5 7 7 7 7 8 8 8
11 11 11 11 11 11 11 11 11 11 11 11 11 11 11 11 10 11 11 11 10 10 9 9 8 7 7 6 6 6 6 5 6 8 6 6 7 7 7 8 8 9 9
11 12 12 12 12 12 12 12 12 12 12 12 12 12 12 12 11 12 12 11 11 10 10 10 10 9 10 9 9 8 8 7 6 7 8 6 6 10 10 10 10 9 9
12 12 12 13 13 13 13 13 13 13 13 13 12 13 13 13 13 13 13 13 12 12 11 11 11 11 11 10 10 10 9 9 9 9 8 8 8 10 12 11 10 11 10
12 13 13 13 13 13 14 13 13 13 13 13 13 14 14 13 13 13 13 14 14 14 13 12 12 11 10 10 10 10 10 10 10 10 10 9 9 10 11 10 11 10 10
13 14 14 14 14 14 14 14 14 14 14 14 14 14 14 14 12 11 12 14 14 14 14 13 13 12 10 9 8 8 7 9 9 9 9 9 9 8 8 8 9 10 11
15 15 15 15 14 14 14 14 14 15 15 15 15 15 15 15 12 11 11 13 14 14 14 13 11 10 10 9 9 8 8 8 8 9 10 10 10 9 9 9 9 10 10
15 15 15 15 15 15 15 15 15 15 16 15 15 16 16 15 12 11 11 13 14 13 13 11 10 10 10 10 9 10 10 10 10 9 9 9 9 8 8 9 9 9 9
15 15 15 16 17 16 18 16 16 17 17 18 16 18 18 16 12 10 11 14 12 12 11 11 10 10 9 8 10 10 10 10 9 8 7 7 6 6 7 8 10 11 12
15 15 15 16 19 19 17 18 17 19 17 16 16 18 18 18 12 10 10 12 13 11 10 10 10 10 9 9 10 10 11 11 10 9 9 8 7 7 7 8 8 10 10
16 16 17 17 19 19 19 19 21 21 19 22 19 18 18 17 16 9 9 10 11 11 11 11 10 9 9 8 8 10 10 9 9 10 9 8 9 10 10 8 7 9 10
18 19 21 22 20 19 24 24 23 24 23 21 20 18 16 15 11 9 8 9 9 10 11 10 10 9 8 9 9 9 8 8 9 9 9 11 9 9 8 7 8 10 10
23 25 25 25 23 23 25 24 22 23 22 20 17 16 14 12 12 10 9 8 9 10 10 9 9 9 9 9 9 8 9 9 9 10 9 9 8 7 7 9 12 11 12
26 26 26 26 25 25 22 21 24 24 22 19 18 13 13 12 11 11 11 10 10 10 9 9 9 9 9 9 10 9 8 9 8 8 8 7 7 8 12 11 12 12 13
26 24 25 24 27 24 21 22 20 20 19 21 15 13 12 12 11 10 10 9 10 10 10 9 11 11 11 10 10 9 9 8 8 8 8 8 8 11 10 12 12 14 14
24 24 25 24 25 22 23 22 16 14 13 12 12 12 13 10 9 9 9 8 8 8 10 11 11 12 10 10 10 9 8 9 9 8 8 8 10 13 12 12 12 13 14
26 25 26 24 24 24 24 24 23 20 15 14 13 12 11 11 10 9 9 8 7 7 10 11 10 10 11 11 11 9 9 9 11 11 11 11 12 13 13 13 14 14 14
32 26 28 27 27 26 25 25 26 26 23 22 16 14 12 11 11 9 8 8 10 15 12 11 10 9 10 10 10 10 10 12 12 13 13 13 14 13 13 14 15 16 17
30 30 29 28 28 27 27 28 26 25 25 23 21 17 17 13 11 11 10 13 13 13 14 13 12 12 11 11 11 11 12 12 13 14 16 19 18 16 18 17 17 16 16
32 27 28 29 29 28 29 27 27 27 25 26 24 21 19 17 22 22 22 20 16 16 16 15 15 14 13 13 13 13 13 14 14 15 17 19 19 19 18 18 18 18 19
29 29 27 30 30 30 30 29 27 27 28 28 24 23 14 15 18 19 22 23 22 20 19 18 17 17 16 16 16 15 15 15 16 16 17 18 20 20 20 18 20 20 19
29 30 30 30 30 29 29 29 29 29 26 26 24 25 15 24 24 23 23 24 25 23 20 20 19 19 20 19 18 18 17 17 17 18 18 19 21 21 21 19 20 19 21
29 30 31 31 31 29 30 30 30 29 29 27 25 24 26 25 25 26 24 25 26 25 20 20 20 20 19 19 19 19 19 19 19 20 20 20 20 20 21 21 21 24 22
30 30 30 31 31 30 31 30 31 29 29 29 29 28 25 26 25 25 24 24 26 24 20 20 20 20 20 20 19 19 19 19 20 21 22 21 20 20 21 23 22 22 27
32 31 31 31 32 31 31 31 30 31 30 28 27 29 29 26 25 25 24 24 23 20 19 19 19 20 20 20 19 19 19 18 19 20 21 22 21 22 25 25 25 25 27
29 29 30 29 28 27 26 25 29 29 28 27 27 27 26 25 24 25 24 24 21 19 19 18 19 19 19 19 19 18 18 17 18 20 22 23 23 25 26 26 27 30 30